Miscellaneous Local Product
Issued by NWS Hastings, NE

Home | Current Version | Previous Version | Text Only | Print | Product List | Glossary On
Versions: 1 2 3 4 5 6 7 8 9 10 11 12 13 14 15 16 17 18 19 20 21 22 23 24 25 26 27 28 29 30 31 32 33 34 35 36 37 38 39 40 41 42 43 44 45 46 47 48 49 50
000
AXUS43 KGID 230602
MISGRI

GID CWA HOURLY WEATHER ROUNDUP
NATIONAL WEATHER SERVICE HASTINGS NE
100 AM CDT WED JUL 23 2014

NOTE: "FAIR" INDICATES FEW OR NO CLOUDS BELOW 12,000 FEET WITH NO
SIGNIFICANT WEATHER AND/OR OBSTRUCTIONS TO VISIBILITY.

...SOUTH CENTRAL NEBRASKA...

CITY           SKY/WX    TMP DP  RH WIND       PRES   REMARKS
GRAND ISLAND   CLEAR     69  66  90 CALM      30.24R
HASTINGS       CLEAR     71  65  81 NE5       30.23R
KEARNEY        CLEAR     70  64  83 NE3       30.25R
ORD            CLEAR     65  63  93 NW3       30.26R
YORK           CLEAR     68  68 100 NE6       30.22R
AURORA         CLEAR     70  69  97 NE7       30.22R
LEXINGTON      PTCLDY    70  67  90 E7        30.27R
HOLDREGE       PTCLDY    71  68  89 NE9       30.24R
HEBRON         CLEAR     75  68  80 NE5       30.20R

...NEBRASKA PANHANDLE...

CITY           SKY/WX    TMP DP  RH WIND       PRES   REMARKS
CHADRON        PTCLDY    70  64  81 NE13      30.28R
ALLIANCE       PTCLDY    71  62  73 E22G29    30.31F
SCOTTSBLUFF    CLEAR     75  61  61 E15G23    30.30R
SIDNEY         CLEAR     73  58  59 SE14      30.33R

...WESTERN AND NORTH CENTRAL NEBRASKA...

CITY           SKY/WX    TMP DP  RH WIND       PRES   REMARKS
VALENTINE      CLOUDY    72  61  68 S3        30.31S
AINSWORTH      CLOUDY    67  63  85 SE7       30.30F
ONEILL         MOCLDY    67  60  78 N6        30.29R
BROKEN BOW     PTCLDY    66  64  93 N6        30.29R
IMPERIAL       CLEAR     73  63  70 E8        30.30R
NORTH PLATTE   PTCLDY    69  64  84 E7        30.29R
MCCOOK         CLEAR     74  67  78 NE12      30.26R

...EASTERN NEBRASKA...

CITY           SKY/WX    TMP DP  RH WIND       PRES   REMARKS
NORFOLK        PTCLDY    70  61  73 NE7       30.23R
SO SIOUX CITY  CLEAR     69  60  73 N3        30.21R
TEKAMAH        CLEAR     67  63  87 N7        30.20R
COLUMBUS       CLEAR     66  61  82 NE7       30.23R
ALBION         CLEAR     69  64  84 N5        30.25R
OMAHA EPPLEY   PTCLDY    71  64  78 N8        30.18R
OFFUTT AFB     CLEAR     74  65  73 N9        30.17R
MILLARD        CLEAR     75  64  67 CALM      30.18R
LINCOLN        CLEAR     73  66  78 N10       30.19R
NEBRASKA CITY  CLEAR     72  67  84 NE12      30.16R
BEATRICE       CLEAR     69  67  93 CALM      30.18R
FALLS CITY     CLEAR     75  69  81 NE3       30.14R

...NORTHERN KANSAS...

CITY           SKY/WX    TMP DP  RH WIND       PRES   REMARKS
GOODLAND       CLEAR     73  68  84 E9        30.27R
HILL CITY      CLEAR     78  68  71 E10       30.21R
NORTON         CLEAR     75  64  69 NE10      30.22
PHILLIPSBURG   CLEAR     79  66  65 NE13      30.19R
SMITH CENTER   CLEAR     75  68  78 NE14      30.20R
HAYS           PTCLDY    45 N/A N/A NE12      30.17R
RUSSELL        CLEAR     81  74  79 NE9       30.15R
CONCORDIA      CLEAR     77  68  73 NE10      30.17R
SALINA         PTCLDY    87  75  67 NE13      30.12R HX  96
TOPEKA         CLEAR     83  75  77 NE8       30.10R HX  90



USA.gov is the U.S. government's official web portal to all federal, state and local government web resources and services.